map of ZND home
ZND - Airport
Location
City:  Zinder, Niger
ICAO:DRZR
IATA:ZND

Details
Type:Airport (Aerodrome, Airfield)
Use:Public/Civil
Latitude:1346'44"N (13.778997)
Longitude:859'02"E (8.983761)
Datum:WGS 1984
Elevation:1516 ft (462 m)
Variation:0.45E (WMM2015v2 magnetic declination)
0.11 annual change
Runways:1
Longest:5988 × 98 ft (1825 × 30 m), paved

Time
Time Zone:UTC+1
Local Time:

Weather
METAR:DRZR 041400Z 30006KT CAVOK 35/M04 Q1011
TAF:DRZR 041100Z 0412/0512 04008KT CAVOK

Related Locations
Nearby:
Farthest:FGI: 12400 mi / 19956 km
Apia [Fagali'i], WS

Find:

   beyond  
but within

Other Information
Maps:
NOTAMs:
Links:
Sources:

  
  • flag of Niger
  

Sectional Chart

Flight Planning
at skyvector.com

Satellite Image

Google Maps Satellite view

 

Copyright © 2004-2019 Karl L. Swartz. All rights reserved.
The Great Circle Mapper name and logo are trademarks of the Great Circle Mapper.
All other trademarks mentioned herein belong to their respective owners.
Please see credits for attibutions and further copyright information.

  Follow gcmap on Facebook Follow gcmap on Twitter GCmap on LinkedIn

hCard Microformat

Geo Microformat